Погода в Яшкине

Россия / Кемеровская область (Кузбасс)     55°52′19″N   85°26′15″E
темп.,
°C
ветер,
м/с
пор.,
м/с
влажн.,
%
обл.,
%
осадки,
мм/ч
давл.,
гПа
погр.,
м
18 апреля, вс
вс1801:00−6ю2585100 0.0 1022123
04:00−4ю31087100 0.0 1019297
07:00−2ююз41185100 0.0 1017495
10:000юз6128344 0.0 1015671
13:00+3юз61185100 0.0 10141017
16:00+4юз61077100 0.1 10121130
19:00+3ююз61277100 0.1 1010818
22:00+1ю61498100 2.4 1005748
19 апреля, пн
пн1901:00+1ююз61498100 4.1 1000746
04:00+2зюз81597100 1.0 9971102
07:00−7сз111688100 1.6 10041116
10:00−8сз91277100 0.3 10131086
13:00−6зсз7958100 0.3 10181480
16:00−5зсз7955100 0.0 10201784
19:00−6сз6863100 0.1 10221554
22:00−7сз586790 0.1 10231228
20 апреля, вт
вт2001:00−7зсз5870100 0.1 10231171
04:00−8зсз577596 0.1 1023988
07:00−9зсз587513 0.1 1025738
10:00−7зсз57595 0.0 1025958
13:00−4зсз56495 0.0 10251250
16:00−2зсз564355 0.0 10241654
19:00−2з354487 0.0 10231597
22:00−4зюз226438 0.0 102454
21 апреля, ср
ср2101:00−4ююз2666100 0.0 1023287
04:00−4ю3766100 0.0 1022345
07:00−3ю3664100 0.0 1022924
10:00−2ююз4563100 0.0 10231139
13:000ю3450100 0.1 10231507
16:00+2ююв2243100 0.0 10231583
19:00+1св225154 0.1 1024294
22:00−2всв378266 0.1 1027193
22 апреля, чт
чт2201:00−3св26835 0.1 1028149
04:00−4ссв26805 0.0 1030195
07:00−3ссв38795 0.0 1033337
10:000св575388 0.0 10341463
13:00+2ссв5644100 0.1 10351887
16:00+2ссв5643100 0.0 10361879
19:00+1ссв475291 0.1 1038822
22:00−2ссв39775 0.0 1041272